EW2692 Weather Reports


Display with metric or nautical units.
time (UTC)temp
F
wind
direction
speed
MPH
gust
MPH
rain 1hr
in
rain 24hr
in
rain mn
in
humidity
%
barometer
mb
20260504231526 45 308 8.0 22.0 0.00 0.00 0.00 42 938.7
20260504230027 46 308 7.0 16.0 0.00 0.00 0.00 41 938.5
20260504224523 46 306 10.0 27.0 0.00 0.00 0.00 41 938.5
20260504223023 47 322 9.0 25.0 0.00 0.00 0.00 41 938.4
20260504221524 47 317 7.0 23.0 0.00 0.00 0.00 41 938.3
20260504220024 47 303 7.0 21.0 0.00 0.00 0.00 42 938.2
20260504214520 46 323 8.0 18.0 0.00 0.00 0.00 42 938.1
20260504213019 47 360 9.0 17.0 0.00 0.00 0.00 42 938.1
20260504211518 46 296 10.0 22.0 0.00 0.00 0.00 43 938.2
20260504210023 46 306 8.0 22.0 0.00 0.00 0.00 45 938.3
20260504204517 46 295 7.0 14.0 0.00 0.00 0.00 45 938.2
20260504203117 45 292 9.0 18.0 0.00 0.00 0.00 46 938.4
20260504201516 46 312 7.0 18.0 0.00 0.00 0.00 47 938.3
20260504200029 46 311 8.0 21.0 0.00 0.00 0.00 46 938.3
20260504194514 46 302 8.0 17.0 0.00 0.00 0.00 50 938.3
20260504193014 45 294 6.0 13.0 0.00 0.00 0.00 52 938.4
20260504191527 44 294 6.0 13.0 0.00 0.00 0.00 53 938.4
20260504190013 43 283 7.0 15.0 0.00 0.00 0.00 52 938.4
20260504184513 44 300 5.0 15.0 0.00 0.00 0.00 52 938.2
20260504183022 45 304 7.0 16.0 0.00 0.00 0.00 49 938.1
20260504181513 44 303 5.0 14.0 0.00 0.00 0.00 50 938.3
20260504180009 44 309 6.0 17.0 0.00 0.00 0.00 49 938.2
20260504174512 45 302 7.0 17.0 0.00 0.00 0.00 48 938.1
20260504173007 44 303 9.0 22.0 0.00 0.00 0.00 48 938.3
20260504171507 43 316 9.0 17.0 0.00 0.00 0.00 50 938.2
20260504081554 46 293 4.0 15.0 0.00 0.00 0.00 49 934.7
20260504050020 55 333 1.0 4.0 0.00 0.00 0.00 41 932.1
20260504044527 56 329 1.0 3.0 0.00 0.00 0.00 40 931.9
20260504043021 56 313 1.0 5.0 0.00 0.00 0.00 39 931.7
20260504041522 57 329 2.0 8.0 0.00 0.00 0.00 38 931.5
20260504040018 58 39 2.0 11.0 0.00 0.00 0.00 40 931.7
20260504034521 58 297 2.0 9.0 0.00 0.00 0.00 40 931.4
20260504033017 58 321 1.0 3.0 0.00 0.00 0.00 41 930.9
20260504031517 59 344 1.0 5.0 0.00 0.00 0.00 39 930.3
20260504030035 60 329 3.0 10.0 0.00 0.00 0.00 38 930.0
20260504024517 62 332 4.0 13.0 0.00 0.00 0.00 37 929.7
20260504023016 63 289 6.0 17.0 0.00 0.00 0.00 35 929.4
20260504021513 69 329 10.0 19.0 0.00 0.00 0.00 31 928.9
20260504020013 69 273 8.0 16.0 0.00 0.00 0.00 30 928.0
20260504014531 70 288 12.0 23.0 0.00 0.00 0.00 29 927.9
20260504013011 71 301 8.0 19.0 0.00 0.00 0.00 29 928.0
20260504011511 72 323 9.0 20.0 0.00 0.00 0.00 28 928.0
20260504010010 73 313 13.0 26.0 0.00 0.00 0.00 28 928.0
20260504004511 73 308 13.0 25.0 0.00 0.00 0.00 27 928.1
20260504003023 74 286 13.0 26.0 0.00 0.00 0.00 24 928.0
20260504001508 76 296 15.0 27.0 0.00 0.00 0.00 20 928.0
20260504000007 77 304 16.0 30.0 0.00 0.00 0.00 18 928.0
20260503234520 76 267 16.0 27.0 0.00 0.00 0.00 22 928.1
20260503233004 76 325 14.0 24.0 0.00 0.00 0.00 21 928.2